This demonstration page uses our WeatherBlox Daily Observations layout. Learn more.

41.55636, -103.73856

Hourly Observations for December 16, 2015

Temp ( °F °C ) Dew Point ( °F °C ) Humidity (%) Winds ( mph kmh ) Pressure ( in mb ) Visibility ( mi km ) Precip ( " mm )
12:17 am 00:17 Windy with Snow Likely 24 -4.4 18 -7.8 77 77 NW 23 37 29.85 1011 5 8.0467 0 0.0254
12:53 am 00:53 Cloudy 22 -5.6 16 -8.9 78 78 NW 21 33 29.8 1009 10 16.0934 0 0.0254
1:53 am 01:53 Partly Cloudy 22 -5.6 16 -8.9 78 78 NW 20 31 29.82 1010 10 16.0934 0 0
2:53 am 02:53 Partly Cloudy 22 -5.6 16 -8.9 78 78 NW 14 22 29.83 1010 10 16.0934 0 0
3:53 am 03:53 Clear 22 -5.6 14 -10 71 71 NW 17 28 29.84 1011 10 16.0934 0 0
4:53 am 04:53 Clear 22 -5.6 14 -10 71 71 NW 16 26 29.86 1011 10 16.0934 0 0
5:53 am 05:53 Clear 22 -5.6 14 -10 71 71 NW 22 35 29.87 1012 10 16.0934 0 0
6:53 am 06:53 Clear 22 -5.6 13 -10.6 68 68 WNW 20 31 29.89 1012 10 16.0934 0 0
7:53 am 07:53 Sunny 18 -7.8 10 -12.2 71 71 WNW 7 11 29.91 1013 10 16.0934 0 0
8:53 am 08:53 Sunny 23 -5 12 -11.1 63 63 WNW 14 22 29.91 1013 10 16.0934 0 0
9:53 am 09:53 Sunny 23 -5 12 -11.1 63 63 WNW 12 19 29.93 1014 10 16.0934 0 0
10:53 am 10:53 Sunny 27 -2.8 13 -10.6 55 55 WNW 14 22 29.91 1013 10 16.0934 0 0
11:53 am 11:53 Sunny 29 -1.7 15 -9.4 56 56 W 22 35 29.88 1012 10 16.0934 0 0
12:53 pm 12:53 Sunny 30 -1.1 17 -8.3 58 58 W 16 26 29.88 1012 10 16.0934 0 0
1:53 pm 13:53 Sunny 30 -1.1 16 -8.9 56 56 WNW 16 26 29.88 1012 10 16.0934 0 0
2:53 pm 14:53 Sunny 30 -1.1 16 -8.9 56 56 WNW 17 28 29.9 1013 10 16.0934 0 0
3:53 pm 15:53 Sunny 26 -3.3 14 -10 60 60 NW 9 15 29.94 1014 10 16.0934 0 0
4:53 pm 16:53 Mostly Clear 24 -4.4 14 -10 65 65 WNW 10 17 29.95 1014 10 16.0934 0 0
5:53 pm 17:53 Mostly Cloudy 21 -6.1 12 -11.1 68 68 WNW 3 6 29.98 1015 10 16.0934 0 0
6:53 pm 18:53 Mostly Cloudy 20 -6.7 12 -11.1 71 71 N 3 6 30 1016 10 16.0934 0 0
7:53 pm 19:53 Cloudy 20 -6.7 13 -10.6 74 74 Calm 30.03 1017 10 16.0934 0 0
8:53 pm 20:53 Clear 15 -9.4 10 -12.2 80 80 NW 5 7 30.02 1017 10 16.0934 0 0
9:53 pm 21:53 Clear 10 -12.2 6 -14.4 84 84 Calm 30.04 1017 10 16.0934 0 0
10:53 pm 22:53 Clear 8 -13.3 4 -15.6 83 83 N 7 11 30.02 1017 10 16.0934 0 0
11:53 pm 23:53 Clear 10 -12.2 5 -15 80 80 Calm 30.02 1017 10 16.0934 0 0

Powered by AerisWeather